User: anonymous
Location: Caltech
(34.1382°N, 118.1253°W)
Time: 21:49:59
(UTC-07:00)
Language:

Cosmos 44 Rocket - Orbit

View from above orbital plane
View from above orbital plane
View from above satellite
View from above satellite

Ground track
Ground track

The orbit data is extracted from the following two-line orbital elements,

1 00877U 64053B   14231.04988697  .00000049  00000-0  35297-4 0  6925
2 00877 065.0786 070.3706 0061734 171.0247 189.1971 14.58870102650779
Epoch (UTC): 19 August 2014 01:11:50
Eccentricity: 0.0061734
inclination: 65.0786°
perigee height: 653 km
apogee height: 740 km
right ascension of ascending node: 70.3706°
argument of perigee: 171.0247°
revolutions per day: 14.58870102
mean anomaly at epoch: 189.1971°
orbit number at epoch: 65077

The dashed part of the orbit path shows where the satellite is in the earth's shadow,  

DLR